• Join FlightAware (Why Join?)
  • Login
  • US Flag 
06:53AM EST


 

Airport Tracker/Info


-or-


 

Live Flight TrackerFlight Track Log ✈ N262BK ✈ 06-May-2012 ✈ KJKA - KORL

Flight Track Log - Related Links

Times and Time Zones

All times are in EDT time to prevent confusion due to time zone crossing. See the N262BK flight status page for this flight to view local times or setup timezone preferences in your user account.

Time Position Orientation Groundspeed Altitude Reporting Facility
EDT Latitude Longitude Course Direction KTS MPH feet Rate Location/Type
01:50PM 30.2881 -87.6553 113° Southeast 195 224 500  Level Jacksonville Center
01:52PM 30.2597 -87.5792 114° Southeast 210 242 4,500 3,057 Climbing Jacksonville Center
01:53PM 30.2292 -87.4983 113° Southeast 215 247 8,500 2,870 Climbing Jacksonville Center
01:54PM 30.2064 -87.4372 100° East 221 254 11,100 2,125 Climbing Jacksonville Center
01:57PM 30.1742 -87.2244 114° Southeast 227 261 17,000 1,875 Climbing Jacksonville Center
01:58PM 30.1453 -87.1486 124° Southeast 240 276 18,600 1,700 Climbing Jacksonville Center
01:59PM 30.1039 -87.0772 122° Southeast 252 290 20,400 1,405 Climbing Jacksonville Center
02:03PM 29.9303 -86.7606 101° East 290 334 25,600 1,080 Climbing Jacksonville Center
02:08PM 29.8447 -86.2400 101° East 335 386 30,100 883 Climbing Jacksonville Center
02:09PM 29.8267 -86.1292 101° East 340 391 30,900 700 Climbing Jacksonville Center
02:10PM 29.8086 -86.0186 100° East 340 391 31,500 550 Climbing Jacksonville Center
02:11PM 29.7925 -85.9081 100° East 340 391 32,000 550 Climbing Jacksonville Center
02:12PM 29.7725 -85.7831 100° East 351 404 32,600 446 Climbing Jacksonville Center
02:13PM 29.7542 -85.6675 100° East 356 410 32,900 150 Climbing Jacksonville Center
02:14PM 29.7358 -85.5475 100° East 362 417 32,900  Level Jacksonville Center
02:15PM 29.7175 -85.4228 100° East 376 433 32,900  Level Jacksonville Center
02:16PM 29.6989 -85.3003 101° East 381 438 32,900  Level Jacksonville Center
02:17PM 29.6783 -85.1753 101° East 392 451 32,900  Level Jacksonville Center
02:18PM 29.6575 -85.0506 101° East 392 451 32,900  Level Jacksonville Center
02:19PM 29.6367 -84.9261 99° East 392 451 32,900  Level Jacksonville Center
02:20PM 29.6197 -84.7989 102° East 397 457 32,900 -400 Level Jacksonville Center
02:21PM 29.5964 -84.6719 100° East 397 457 32,100 -900 Descending Jacksonville Center
02:22PM 29.5772 -84.5428 103° East 397 457 31,100 -1,250 Descending Jacksonville Center
02:23PM 29.5519 -84.4133 101° East 397 457 29,600 -1,550 Descending Jacksonville Center
02:24PM 29.5303 -84.2842 100° East 407 468 28,000 -1,800 Descending Jacksonville Center
02:25PM 29.5108 -84.1572 102° East 407 468 26,000 -2,000 Descending Jacksonville Center
02:26PM 29.4889 -84.0425 99° East 397 457 24,000 -1,250 Descending Jacksonville Center
02:27PM 29.4731 -83.9328 100° East 368 423 23,500 -550 Descending Jacksonville Center
02:28PM 29.4553 -83.8228 101° East 354 407 22,900 -550 Descending Jacksonville Center
02:29PM 29.4372 -83.7153 102° East 348 400 22,400 -500 Descending Jacksonville Center
02:30PM 29.4169 -83.6031 101° East 348 400 21,900 -650 Descending Jacksonville Center
02:31PM 29.3986 -83.4933 100° East 353 406 21,100 -450 Descending Jacksonville Center
02:32PM 29.3825 -83.3906 102° East 353 406 21,000 -50 Descending Jacksonville Center
02:33PM 29.3619 -83.2811 101° East 353 406 21,000  Level Jacksonville Center
02:34PM 29.3433 -83.1714 101° East 353 406 21,000  Level Jacksonville Center
02:35PM 29.3247 -83.0569 103° East 358 412 21,000  Level Jacksonville Center
02:36PM 29.3019 -82.9450 101° East 358 412 21,000  Level Jacksonville Center
02:37PM 29.2833 -82.8306 101° East 358 412 21,000  Level Jacksonville Center
02:38PM 29.2644 -82.7189 101° East 353 406 21,000  Level Jacksonville Center
02:39PM 29.2453 -82.6069 101° East 353 406 21,000  Level Jacksonville Center
02:40PM 29.2261 -82.4975 102° East 353 406 21,000  Level Jacksonville Center
02:41PM 29.2050 -82.3858 101° East 353 406 21,000  Level Jacksonville Center
02:42PM 29.1856 -82.2742 120° Southeast 353 406 21,000 -200 Level Jacksonville Center
02:43PM 29.1394 -82.1842 144° Southeast 353 406 20,600 -744 Descending Jacksonville Center
02:44PM 29.0658 -82.1228 141° Southeast 326 375 19,500 -1,339 Descending Jacksonville Center
02:45PM 28.9944 -82.0569 135° Southeast 321 369 17,900 -2,723 Descending Jacksonville Center
02:46PM 28.9294 -81.9839 124° Southeast 316 364 14,100 -3,400 Descending Jacksonville Center
02:47PM 28.8914 -81.9203 90° East 254 292 11,100 -1,750 Descending Jacksonville Center
02:48PM 28.8908 -81.8467 94° East 227 261 10,600 -800 Descending Jacksonville Center
02:49PM 28.8858 -81.7614 89° East 236 272 9,500 -1,000 Descending Jacksonville Center
02:50PM 28.8872 -81.6903 92° East 243 280 8,600 -958 Descending Jacksonville Center
02:51PM 28.8844 -81.6097 106° East 249 287 7,600 -992 Descending Jacksonville Center
02:52PM 28.8647 -81.5317 110° East 254 292 6,600 -1,100 Descending Jacksonville Center
02:53PM 28.8411 -81.4586 107° East 249 287 5,400 -1,406 Descending Jacksonville Center
02:54PM 28.8167 -81.3667 120° Southeast 229 264 3,600 -1,056 Descending Orlando TRACON
02:55PM 28.7833 -81.3000 180° South 196 226 2,900 -520 Descending Orlando TRACON
02:56PM 28.7333 -81.3000 164° South 212 244 2,500 -263 Descending Orlando TRACON
02:57PM 28.6833 -81.2833 164° South 194 223 2,400 -209 Descending Orlando TRACON
02:58PM 28.6333 -81.2667 180° South 195 224 2,100 -522 Descending Orlando TRACON
02:59PM 28.5833 -81.2667 221° Southwest 165 190 1,400 -750 Descending Orlando TRACON
03:00PM 28.5667 -81.2833 202° Southwest 124 143 600 -800 Descending Orlando TRACON
03:08PM 28.4239 -81.3500 13° North  Level FlightAware Approximate
03:09PM 28.5104 -81.3281 353° North  Level FlightAware Approximate
03:10PM 28.6002 -81.3404 173° South  Level Estimated
03:11PM 28.5104 -81.3281 173° South  Level Estimated